Flag for Ireland Weather past 2 weeks in Cork, Ireland

Now
45 °F

Passing clouds.


Feels Like: 40 °F
Forecast: 41 / 48 °F
Wind: 8 mph from Northwest

Location: Cork Airport

Current Time: Dec 19, 2014 at 4:03:34 AM

Latest Report: Dec 19, 2014 at 2:00 AM


Visibility: 13 mi

Pressure: 29.89 "Hg

Humidity: 84%

Dew point: 40 °F

Location of CorkLocation

Historic Weather in Cork — Graph

°F

Cork temperature yesterday

Maximum temperature yesterday: 54 °F (at 10:00 AM)
Minimum temperature yesterday: 49 °F (at 11:00 PM)
Average temperature yesterday: 53 °F

Past Weeks' High & Low Weather Summary

 TemperatureHumidityPressure
High54 °F (Dec 18, 10:00 AM)100% (Dec 6, 6:00 PM)30.47 "Hg (Dec 6, 6:00 PM)
Low33 °F (Dec 12, 9:00 AM)62% (Dec 7, 1:00 PM)29.32 "Hg (Dec 11, 11:00 PM)
Average44 °F91%29.99 "Hg
* Reported Dec 4 2:00 AM — Dec 19 2:00 AM, Cork, Weather by CustomWeather, © 2014

Note: Actual official high and low records may vary slightly from our data, if they occured in-between our weather recording intervals... More about our weather records

Advertising

Cork weather history for previous 24 hours

 ConditionsComfort  
Time TempWeatherWind HumidityBarometerVisibility
2:00 AM
Dec 19
45 °FPassing clouds.8 mph84%29.89 "Hg12 mi
1:00 AM45 °FPassing clouds.9 mph90%29.86 "Hg12 mi
12:00 AM47 °FOvercast.8 mph88%29.83 "Hg12 mi
11:00 PM
Dec 18
49 °FOvercast.8 mph90%29.81 "Hg12 mi
10:00 PM51 °FOvercast.7 mph92%29.78 "Hg12 mi
8:00 PM54 °FLow clouds.10 mph99%29.74 "Hg11 mi
7:00 PM54 °FRain. Low clouds.9 mph99%29.74 "Hg10 mi
6:00 PM53 °FDrizzle. Low clouds.9 mph99%29.74 "Hg10 mi
5:00 PM53 °FDrizzle. Low clouds.10 mph99%29.73 "Hg12 mi
4:00 PM54 °FLow clouds.10 mph99%29.73 "Hg16 mi
3:00 PM54 °FRain. Low clouds.12 mph97%29.73 "Hg10 mi
2:00 PM54 °FRain. Low clouds.12 mph97%29.72 "Hg5 mi
1:00 PM54 °FRain. Low clouds.12 mph99%29.73 "Hg5 mi
12:00 PM54 °FDrizzle. Low clouds.12 mph99%29.75 "Hg7 mi
11:00 AM54 °FRain. Low clouds.13 mph99%29.76 "Hg4 mi
10:00 AM54 °FRain. Low clouds.14 mph98%29.74 "Hg4 mi
9:00 AM53 °FRain. Low clouds.12 mph100%29.75 "Hg2 mi
8:00 AM53 °FRain. Low clouds.12 mph100%29.75 "Hg12 mi
7:00 AM53 °FRain. Low clouds.13 mph100%29.74 "Hg2 mi
6:00 AM52 °FRain. Low clouds.10 mph100%29.75 "Hg2 mi
5:00 AM52 °FRain. Low clouds.12 mph100%29.75 "Hg2 mi
4:00 AM52 °FRain. Low clouds.10 mph100%29.78 "Hg2 mi
Weather by CustomWeather, © 2014

See weather overviewHow to use our weather pages